DAL480 KLAX-PHNL

Flight info

Callsign DAL480
Flight time 5h 18m
Altitude 34000
Route SUMMR2 DINTY DUETS R576 DENNS INOYI1
Aircraft MD11/H-SDE1E2E3FGHIJ2J3J4J5M1RWXY/LB1D1

Departure

Time 2026-04-22 15:53
Airport Los Angeles International Airport (KLAX)

Arrival

Time 2026-04-22 21:11
Airport Daniel K. Inouye International Airport (PHNL)
Time Latitude Longitude Altitude Speed Heading
2026-04-22 15:30 33.94604 -118.40813 100 ft 0 kts 112°
2026-04-22 15:45 33.94608 -118.40825 99 ft 4 kts 112°
2026-04-22 15:45 33.94617 -118.40850 103 ft 4 kts 110°
2026-04-22 15:45 33.94622 -118.40876 100 ft 4 kts 72°
2026-04-22 15:46 33.94614 -118.40893 99 ft 4 kts 18°
2026-04-22 15:46 33.94591 -118.40896 100 ft 4 kts 353°
2026-04-22 15:46 33.94567 -118.40892 100 ft 1 kts 353°
2026-04-22 15:46 33.94566 -118.40892 100 ft 0 kts 353°
2026-04-22 15:49 33.94597 -118.40897 102 ft 11 kts 353°
2026-04-22 15:49 33.94713 -118.40909 102 ft 20 kts
2026-04-22 15:49 33.94830 -118.40828 102 ft 20 kts 61°
2026-04-22 15:50 33.94862 -118.40643 105 ft 25 kts 83°
2026-04-22 15:50 33.94884 -118.40423 101 ft 26 kts 83°
2026-04-22 15:50 33.94903 -118.40213 104 ft 24 kts 83°
2026-04-22 15:50 33.94921 -118.40027 102 ft 21 kts 83°
2026-04-22 15:51 33.94943 -118.39948 100 ft 0 kts 54°
2026-04-22 15:51 33.94947 -118.39943 100 ft 6 kts 47°
2026-04-22 15:51 33.95025 -118.39924 102 ft 5 kts 333°
2026-04-22 15:51 33.95031 -118.39938 100 ft 2 kts 292°
2026-04-22 15:52 33.95035 -118.39989 101 ft 8 kts 268°
2026-04-22 15:52 33.95018 -118.40169 107 ft 56 kts 263°
2026-04-22 15:52 33.94936 -118.40972 104 ft 134 kts 263°
2026-04-22 15:52 33.94823 -118.42112 145 ft 178 kts 264°
2026-04-22 15:53 33.94677 -118.43613 753 ft 180 kts 264°
2026-04-22 15:53 33.94531 -118.45137 1556 ft 188 kts 264°
2026-04-22 15:53 33.94390 -118.46721 2480 ft 191 kts 264°
2026-04-22 15:53 33.94238 -118.48328 3386 ft 196 kts 263°
2026-04-22 15:54 33.94069 -118.49975 4165 ft 206 kts 263°
2026-04-22 15:54 33.93873 -118.51707 5031 ft 208 kts 262°
2026-04-22 15:54 33.93657 -118.53460 5902 ft 214 kts 262°
2026-04-22 15:54 33.93463 -118.55244 6791 ft 220 kts 263°
2026-04-22 15:55 33.93301 -118.57148 7296 ft 241 kts 267°
2026-04-22 15:55 33.93232 -118.59271 7459 ft 265 kts 268°
2026-04-22 15:55 33.93161 -118.61517 8025 ft 271 kts 268°
2026-04-22 15:55 33.93061 -118.63759 8564 ft 271 kts 267°
2026-04-22 15:56 33.92937 -118.66032 9127 ft 272 kts 266°
2026-04-22 15:56 33.92796 -118.68316 9680 ft 274 kts 266°
2026-04-22 15:56 33.92639 -118.70638 10243 ft 282 kts 266°
2026-04-22 15:56 33.92473 -118.72994 10796 ft 290 kts 265°
2026-04-22 15:57 33.92293 -118.75459 11358 ft 297 kts 265°
2026-04-22 15:57 33.92106 -118.77971 11917 ft 304 kts 265°
2026-04-22 15:57 33.91913 -118.80519 12468 ft 311 kts 265°
2026-04-22 15:57 33.91757 -118.83153 13025 ft 317 kts 269°
2026-04-22 15:58 33.91759 -118.85851 13584 ft 323 kts 271°
2026-04-22 15:58 33.91825 -118.88557 14135 ft 329 kts 271°
2026-04-22 15:58 33.91911 -118.91343 14690 ft 335 kts 271°
2026-04-22 15:58 33.92001 -118.94137 15239 ft 340 kts 271°
2026-04-22 15:59 33.92091 -118.97014 15794 ft 345 kts 271°
2026-04-22 15:59 33.92226 -118.99925 16348 ft 348 kts 276°
2026-04-22 15:59 33.92839 -119.02734 16899 ft 354 kts 290°
2026-04-22 15:59 33.93981 -119.05411 17452 ft 361 kts 296°
2026-04-22 16:00 33.95302 -119.07993 17995 ft 365 kts 298°
2026-04-22 16:00 33.96683 -119.10575 18550 ft 367 kts 298°
2026-04-22 16:00 33.98058 -119.13153 19101 ft 370 kts 298°
2026-04-22 16:00 33.99445 -119.15787 19653 ft 372 kts 298°
2026-04-22 16:01 34.01006 -119.18303 20205 ft 379 kts 308°
2026-04-22 16:01 34.02967 -119.20423 20756 ft 385 kts 315°
2026-04-22 16:01 34.05141 -119.22362 21312 ft 388 kts 318°
2026-04-22 16:01 34.07343 -119.24208 21852 ft 389 kts 319°
2026-04-22 16:02 34.09577 -119.26066 22411 ft 389 kts 318°
2026-04-22 16:02 34.11811 -119.27942 22956 ft 388 kts 318°
2026-04-22 16:02 34.13996 -119.29802 23499 ft 387 kts 317°
2026-04-22 16:02 34.16198 -119.31693 24051 ft 385 kts 317°
2026-04-22 16:03 34.18377 -119.33577 24602 ft 384 kts 317°
2026-04-22 16:03 34.20523 -119.35439 25150 ft 383 kts 317°
2026-04-22 16:03 34.22691 -119.37325 25690 ft 382 kts 316°
2026-04-22 16:03 34.24835 -119.39193 26244 ft 381 kts 316°
2026-04-22 16:04 34.26994 -119.41076 26797 ft 380 kts 316°
2026-04-22 16:04 34.29113 -119.42925 27328 ft 380 kts 316°
2026-04-22 16:04 34.31297 -119.44839 27434 ft 391 kts 316°
2026-04-22 16:04 34.33466 -119.46830 27563 ft 397 kts 313°
2026-04-22 16:05 34.35522 -119.49110 27689 ft 400 kts 306°
2026-04-22 16:05 34.37287 -119.51726 27821 ft 401 kts 298°
2026-04-22 16:05 34.38676 -119.54635 27953 ft 402 kts 290°
2026-04-22 16:05 34.39678 -119.57824 28079 ft 405 kts 282°
2026-04-22 16:06 34.40255 -119.61173 28251 ft 407 kts 274°
2026-04-22 16:06 34.40405 -119.64542 28541 ft 407 kts 267°
2026-04-22 16:06 34.40253 -119.67973 28869 ft 408 kts 264°
2026-04-22 16:06 34.39983 -119.71410 29174 ft 410 kts 263°
2026-04-22 16:07 34.39687 -119.74858 29509 ft 411 kts 263°
2026-04-22 16:07 34.39398 -119.78319 29806 ft 413 kts 264°
2026-04-22 16:07 34.39131 -119.81747 30162 ft 413 kts 264°
2026-04-22 16:07 34.38872 -119.85224 30549 ft 413 kts 264°
2026-04-22 16:08 34.38622 -119.88660 30964 ft 412 kts 264°
2026-04-22 16:08 34.38377 -119.92110 31376 ft 410 kts 264°
2026-04-22 16:08 34.38132 -119.95552 31778 ft 408 kts 264°
2026-04-22 16:08 34.37889 -119.98972 32166 ft 407 kts 264°
2026-04-22 16:09 34.37646 -120.02381 32578 ft 404 kts 264°
2026-04-22 16:09 34.37405 -120.05768 32929 ft 403 kts 263°
2026-04-22 16:09 34.37163 -120.09148 33299 ft 401 kts 263°
2026-04-22 16:09 34.36923 -120.12463 33668 ft 398 kts 263°
2026-04-22 16:10 34.36680 -120.15803 34030 ft 396 kts 263°
2026-04-22 16:10 34.36436 -120.19142 34197 ft 399 kts 263°
2026-04-22 16:10 34.35941 -120.25879 34237 ft 402 kts 263°
2026-04-22 16:11 34.35446 -120.32607 34241 ft 400 kts 263°
2026-04-22 16:11 34.34948 -120.39307 34237 ft 399 kts 263°
2026-04-22 16:12 34.34158 -120.45913 34242 ft 397 kts 253°
2026-04-22 16:12 34.32008 -120.52105 34247 ft 399 kts 246°
2026-04-22 16:13 34.29555 -120.58089 34247 ft 400 kts 245°
2026-04-22 16:13 34.27089 -120.64219 34248 ft 409 kts 246°
2026-04-22 16:14 34.24616 -120.70482 34248 ft 415 kts 246°
2026-04-22 16:14 34.22130 -120.76808 34247 ft 416 kts 246°
2026-04-22 16:15 34.19655 -120.83098 34246 ft 414 kts 246°
2026-04-22 16:15 34.17196 -120.89339 34246 ft 414 kts 246°
2026-04-22 16:16 34.14716 -120.95617 34246 ft 414 kts 246°
2026-04-22 16:16 34.12235 -121.01891 34246 ft 414 kts 246°
2026-04-22 16:17 34.09744 -121.08171 34250 ft 414 kts 246°
2026-04-22 16:17 34.07250 -121.14452 34252 ft 414 kts 246°
2026-04-22 16:18 34.04778 -121.20670 34249 ft 414 kts 246°
2026-04-22 16:18 34.02278 -121.26940 34246 ft 414 kts 246°
2026-04-22 16:19 33.99774 -121.33207 34246 ft 414 kts 246°
2026-04-22 16:19 33.97277 -121.39420 34238 ft 415 kts 246°
2026-04-22 16:20 33.94743 -121.45685 34240 ft 416 kts 246°
2026-04-22 16:20 33.92210 -121.51967 34253 ft 415 kts 246°
2026-04-22 16:21 33.89701 -121.58199 34246 ft 415 kts 246°
2026-04-22 16:21 33.87176 -121.64468 34246 ft 415 kts 246°
2026-04-22 16:22 33.83397 -121.73822 34254 ft 415 kts 245°
2026-04-22 16:23 33.79610 -121.83163 34248 ft 415 kts 245°
2026-04-22 16:23 33.77496 -121.88370 34250 ft 416 kts 245°
2026-04-22 16:24 33.73677 -121.97756 34246 ft 416 kts 245°
2026-04-22 16:25 33.71143 -122.03969 34247 ft 416 kts 245°
2026-04-22 16:25 33.67318 -122.13327 34250 ft 415 kts 245°
2026-04-22 16:26 33.64768 -122.19550 34254 ft 416 kts 245°
2026-04-22 16:26 33.62212 -122.25775 34246 ft 415 kts 245°
2026-04-22 16:27 33.59650 -122.31951 34246 ft 415 kts 245°
2026-04-22 16:27 33.57074 -122.38161 34246 ft 414 kts 245°
2026-04-22 16:28 33.54520 -122.44336 34239 ft 415 kts 245°
2026-04-22 16:28 33.51952 -122.50547 34240 ft 415 kts 245°
2026-04-22 16:29 33.49401 -122.56709 34235 ft 414 kts 245°
2026-04-22 16:29 33.47116 -122.63032 34245 ft 413 kts 253°
2026-04-22 16:30 33.45677 -122.69649 34238 ft 412 kts 257°
2026-04-22 16:30 33.44377 -122.76356 34236 ft 412 kts 257°
2026-04-22 16:31 33.43040 -122.83043 34237 ft 413 kts 256°
2026-04-22 16:31 33.41680 -122.89689 34245 ft 412 kts 256°
2026-04-22 16:32 33.40300 -122.96372 34247 ft 413 kts 256°
2026-04-22 16:32 33.38923 -123.03019 34243 ft 413 kts 256°
2026-04-22 16:33 33.37534 -123.09705 34238 ft 413 kts 256°
2026-04-22 16:33 33.36152 -123.16338 34238 ft 413 kts 256°
2026-04-22 16:34 33.34754 -123.23022 34235 ft 413 kts 256°
2026-04-22 16:34 33.33363 -123.29658 34236 ft 413 kts 256°
2026-04-22 16:35 33.31961 -123.36338 34240 ft 414 kts 256°
2026-04-22 16:35 33.30554 -123.43012 34238 ft 414 kts 256°
2026-04-22 16:36 33.29151 -123.49649 34243 ft 414 kts 256°
2026-04-22 16:36 33.27739 -123.56312 34248 ft 413 kts 256°
2026-04-22 16:37 33.26295 -123.63002 34248 ft 415 kts 256°
2026-04-22 16:37 33.24864 -123.69635 34246 ft 415 kts 256°
2026-04-22 16:38 33.23428 -123.76331 34247 ft 415 kts 256°
2026-04-22 16:38 33.22003 -123.82976 34247 ft 414 kts 256°
2026-04-22 16:39 33.20566 -123.89650 34247 ft 413 kts 256°
2026-04-22 16:39 33.19138 -123.96274 34247 ft 414 kts 256°
2026-04-22 16:40 33.17697 -124.02943 34247 ft 413 kts 256°
2026-04-22 16:41 33.15544 -124.12866 34251 ft 413 kts 256°
2026-04-22 16:41 33.14096 -124.19514 34247 ft 412 kts 256°
2026-04-22 16:42 33.12660 -124.26093 34240 ft 411 kts 256°
2026-04-22 16:42 33.11212 -124.32707 34239 ft 411 kts 256°
2026-04-22 16:43 33.09773 -124.39265 34239 ft 410 kts 256°
2026-04-22 16:43 33.08321 -124.45865 34232 ft 410 kts 256°
2026-04-22 16:44 33.06860 -124.52445 34232 ft 409 kts 255°
2026-04-22 16:44 33.05384 -124.58967 34225 ft 409 kts 255°
2026-04-22 16:45 33.03905 -124.65535 34225 ft 408 kts 255°
2026-04-22 16:45 33.02446 -124.72052 34225 ft 408 kts 255°
2026-04-22 16:46 33.00986 -124.78556 34227 ft 408 kts 255°
2026-04-22 16:46 32.99515 -124.85091 34231 ft 407 kts 255°
2026-04-22 16:47 32.98041 -124.91620 34227 ft 407 kts 255°
2026-04-22 16:47 32.96575 -124.98102 34230 ft 407 kts 255°
2026-04-22 16:48 32.95092 -125.04642 34224 ft 408 kts 255°
2026-04-22 16:48 32.93616 -125.11132 34238 ft 407 kts 255°
2026-04-22 16:49 32.92140 -125.17608 34225 ft 407 kts 255°
2026-04-22 16:49 32.90653 -125.24112 34228 ft 407 kts 255°
2026-04-22 16:50 32.89162 -125.30613 34217 ft 406 kts 255°
2026-04-22 16:50 32.87681 -125.37063 34214 ft 406 kts 255°
2026-04-22 16:51 32.86186 -125.43554 34208 ft 405 kts 255°
2026-04-22 16:51 32.84688 -125.49985 34208 ft 405 kts 255°
2026-04-22 16:52 32.83169 -125.56445 34221 ft 404 kts 255°
2026-04-22 16:52 32.81662 -125.62895 34198 ft 404 kts 255°
2026-04-22 16:53 32.80169 -125.69299 34193 ft 404 kts 255°
2026-04-22 16:53 32.78669 -125.75727 34192 ft 402 kts 255°
2026-04-22 16:54 32.77167 -125.82143 34201 ft 403 kts 255°
2026-04-22 16:54 32.75672 -125.88518 34200 ft 402 kts 255°
2026-04-22 16:55 32.74166 -125.94914 34201 ft 401 kts 255°
2026-04-22 16:55 32.72671 -126.01267 34201 ft 401 kts 255°
2026-04-22 16:56 32.71160 -126.07667 34199 ft 401 kts 255°
2026-04-22 16:56 32.69661 -126.13988 34201 ft 401 kts 255°
2026-04-22 16:57 32.68144 -126.20361 34192 ft 400 kts 255°
2026-04-22 16:57 32.66629 -126.26731 34191 ft 400 kts 255°
2026-04-22 16:58 32.65381 -126.31975 34192 ft 399 kts 255°
2026-04-22 16:58 32.63613 -126.39365 34194 ft 399 kts 255°
2026-04-22 16:59 32.62076 -126.45707 34192 ft 400 kts 255°
2026-04-22 16:59 32.60539 -126.52019 34192 ft 400 kts 254°
2026-04-22 17:00 32.59000 -126.58379 34193 ft 400 kts 255°
2026-04-22 17:00 32.56707 -126.67860 34212 ft 400 kts 255°
2026-04-22 17:01 32.55166 -126.74205 34215 ft 400 kts 255°
2026-04-22 17:01 32.53633 -126.80520 34212 ft 400 kts 255°
2026-04-22 17:02 32.52086 -126.86861 34215 ft 400 kts 254°
2026-04-22 17:02 32.50543 -126.93166 34212 ft 400 kts 254°
2026-04-22 17:03 32.48995 -126.99504 34200 ft 400 kts 254°
2026-04-22 17:03 32.47452 -127.05799 34202 ft 400 kts 254°
2026-04-22 17:04 32.45888 -127.12141 34202 ft 399 kts 254°
2026-04-22 17:04 32.44339 -127.18417 34203 ft 399 kts 254°
2026-04-22 17:05 32.42782 -127.24730 34203 ft 399 kts 254°
2026-04-22 17:05 32.41230 -127.31001 34201 ft 397 kts 254°
2026-04-22 17:06 32.39667 -127.37289 34201 ft 397 kts 253°
2026-04-22 17:06 32.38079 -127.43541 34213 ft 397 kts 253°
2026-04-22 17:07 32.36510 -127.49774 34212 ft 397 kts 253°
2026-04-22 17:07 32.34941 -127.56032 34202 ft 396 kts 253°
2026-04-22 17:08 32.33385 -127.62239 34201 ft 394 kts 253°
2026-04-22 17:08 32.31821 -127.68476 34202 ft 395 kts 253°
2026-04-22 17:09 32.30259 -127.74686 34198 ft 393 kts 253°
2026-04-22 17:09 32.28701 -127.80856 34200 ft 393 kts 253°
2026-04-22 17:10 32.27133 -127.87049 34200 ft 393 kts 253°
2026-04-22 17:10 32.25568 -127.93229 34200 ft 392 kts 253°
2026-04-22 17:11 32.24004 -127.99375 34201 ft 391 kts 253°
2026-04-22 17:11 32.22435 -128.05543 34202 ft 392 kts 253°
2026-04-22 17:12 32.20868 -128.11685 34212 ft 392 kts 253°
2026-04-22 17:12 32.19286 -128.17863 34223 ft 392 kts 253°
2026-04-22 17:13 32.17709 -128.24014 34229 ft 393 kts 253°
2026-04-22 17:13 32.16386 -128.29166 34232 ft 393 kts 253°
2026-04-22 17:14 32.14513 -128.36350 34226 ft 394 kts 253°
2026-04-22 17:14 32.13160 -128.41536 34227 ft 394 kts 253°
2026-04-22 17:15 32.11556 -128.47716 34231 ft 396 kts 253°
2026-04-22 17:15 32.09949 -128.53899 34226 ft 397 kts 253°
2026-04-22 17:16 32.08324 -128.60160 34234 ft 398 kts 253°
2026-04-22 17:16 32.06702 -128.66382 34232 ft 399 kts 253°
2026-04-22 17:17 32.05058 -128.72679 34235 ft 402 kts 253°
2026-04-22 17:17 32.03417 -128.78953 34236 ft 403 kts 253°
2026-04-22 17:18 32.01753 -128.85293 34235 ft 404 kts 253°
2026-04-22 17:18 32.00098 -128.91595 34227 ft 405 kts 253°
2026-04-22 17:19 31.96748 -129.04311 34231 ft 407 kts 253°
2026-04-22 17:20 31.93373 -129.17047 34229 ft 408 kts 252°
2026-04-22 17:21 31.90811 -129.26635 34229 ft 411 kts 252°
2026-04-22 17:22 31.88218 -129.36260 34228 ft 413 kts 252°
2026-04-22 17:23 31.85611 -129.45972 34227 ft 415 kts 252°
2026-04-22 17:23 31.83007 -129.55667 34233 ft 416 kts 252°
2026-04-22 17:24 31.81251 -129.62179 34227 ft 417 kts 252°
2026-04-22 17:24 31.79503 -129.68659 34227 ft 418 kts 252°
2026-04-22 17:25 31.77736 -129.75185 34235 ft 418 kts 252°
2026-04-22 17:25 31.75968 -129.81710 34212 ft 419 kts 252°
2026-04-22 17:26 31.74201 -129.88202 34220 ft 419 kts 252°
2026-04-22 17:26 31.72417 -129.94745 34212 ft 419 kts 252°
2026-04-22 17:27 31.70646 -130.01241 34216 ft 419 kts 252°
2026-04-22 17:27 31.68866 -130.07749 34205 ft 420 kts 252°
2026-04-22 17:28 31.67071 -130.14292 34209 ft 420 kts 252°
2026-04-22 17:28 31.65261 -130.20820 34215 ft 420 kts 252°
2026-04-22 17:29 31.63453 -130.27302 34220 ft 421 kts 252°
2026-04-22 17:29 31.61638 -130.33844 34218 ft 421 kts 252°
2026-04-22 17:30 31.59827 -130.40379 34214 ft 421 kts 252°
2026-04-22 17:30 31.58016 -130.46913 34204 ft 421 kts 252°
2026-04-22 17:31 31.56209 -130.53412 34219 ft 422 kts 252°
2026-04-22 17:31 31.54389 -130.59950 34204 ft 422 kts 252°
2026-04-22 17:32 31.52557 -130.66506 34216 ft 422 kts 252°
2026-04-22 17:32 31.50732 -130.73022 34205 ft 423 kts 251°
2026-04-22 17:33 31.48890 -130.79591 34211 ft 423 kts 251°
2026-04-22 17:33 31.47055 -130.86117 34209 ft 424 kts 251°
2026-04-22 17:34 31.45200 -130.92697 34203 ft 425 kts 251°
2026-04-22 17:34 31.43348 -130.99256 34212 ft 425 kts 251°
2026-04-22 17:35 31.41482 -131.05841 34216 ft 426 kts 251°
2026-04-22 17:35 31.39606 -131.12425 34216 ft 427 kts 251°
2026-04-22 17:36 31.37718 -131.18986 34209 ft 427 kts 251°
2026-04-22 17:36 31.35824 -131.25598 34211 ft 428 kts 251°
2026-04-22 17:37 31.33946 -131.32174 34205 ft 429 kts 251°
2026-04-22 17:37 31.32052 -131.38798 34210 ft 428 kts 251°
2026-04-22 17:38 31.30154 -131.45421 34220 ft 429 kts 251°
2026-04-22 17:38 31.28261 -131.52002 34206 ft 429 kts 251°
2026-04-22 17:39 31.26353 -131.58625 34215 ft 430 kts 251°
2026-04-22 17:40 31.23493 -131.68525 34210 ft 429 kts 251°
2026-04-22 17:40 31.21584 -131.75114 34204 ft 430 kts 251°
2026-04-22 17:41 31.19660 -131.81738 34217 ft 429 kts 251°
2026-04-22 17:41 31.17747 -131.88312 34214 ft 430 kts 251°
2026-04-22 17:42 31.15819 -131.94923 34215 ft 430 kts 251°
2026-04-22 17:42 31.13886 -132.01539 34215 ft 430 kts 251°
2026-04-22 17:43 31.11940 -132.08121 34212 ft 433 kts 250°
2026-04-22 17:43 31.09998 -132.14772 34210 ft 432 kts 251°
2026-04-22 17:44 31.08071 -132.21379 34210 ft 432 kts 250°
2026-04-22 17:44 31.06112 -132.28007 34215 ft 431 kts 250°
2026-04-22 17:45 31.04161 -132.34584 34213 ft 430 kts 250°
2026-04-22 17:45 31.02198 -132.41189 34212 ft 430 kts 250°
2026-04-22 17:46 31.00251 -132.47743 34212 ft 430 kts 250°
2026-04-22 17:46 30.98287 -132.54332 34219 ft 429 kts 250°
2026-04-22 17:47 30.96333 -132.60865 34215 ft 429 kts 250°
2026-04-22 17:47 30.94362 -132.67447 34202 ft 429 kts 250°
2026-04-22 17:48 30.92721 -132.72898 34204 ft 428 kts 250°
2026-04-22 17:48 30.90427 -132.80510 34205 ft 428 kts 250°
2026-04-22 17:49 30.88463 -132.87040 34216 ft 428 kts 250°
2026-04-22 17:49 30.86487 -132.93599 34205 ft 427 kts 250°
2026-04-22 17:50 30.84527 -133.00107 34217 ft 427 kts 250°
2026-04-22 17:50 30.82555 -133.06632 34213 ft 427 kts 250°
2026-04-22 17:51 30.80587 -133.13127 34217 ft 426 kts 250°
2026-04-22 17:51 30.78609 -133.19647 34217 ft 426 kts 250°
2026-04-22 17:52 30.76642 -133.26120 34214 ft 426 kts 250°
2026-04-22 17:52 30.74661 -133.32622 34219 ft 425 kts 250°
2026-04-22 17:53 30.72692 -133.39068 34214 ft 424 kts 250°
2026-04-22 17:53 30.70711 -133.45545 34204 ft 424 kts 250°
2026-04-22 17:54 30.68743 -133.51964 34213 ft 423 kts 250°
2026-04-22 17:54 30.66765 -133.58405 34219 ft 421 kts 250°
2026-04-22 17:55 30.65112 -133.63737 34206 ft 421 kts 249°
2026-04-22 17:55 30.62788 -133.71196 34204 ft 421 kts 249°
2026-04-22 17:56 30.60803 -133.77598 34208 ft 420 kts 249°
2026-04-22 17:56 30.58845 -133.83935 34205 ft 419 kts 249°
2026-04-22 17:57 30.56865 -133.90312 34210 ft 419 kts 249°
2026-04-22 17:57 30.54898 -133.96629 34213 ft 417 kts 249°
2026-04-22 17:58 30.52919 -134.02967 34213 ft 417 kts 249°
2026-04-22 17:58 30.50952 -134.09278 34213 ft 419 kts 249°
2026-04-22 17:59 30.48970 -134.15618 34214 ft 416 kts 249°
2026-04-22 17:59 30.46979 -134.21965 34208 ft 419 kts 249°
2026-04-22 18:00 30.45320 -134.27250 34204 ft 419 kts 249°
2026-04-22 18:00 30.43006 -134.34612 34208 ft 420 kts 249°
2026-04-22 18:01 30.40988 -134.41020 34208 ft 422 kts 248°
2026-04-22 18:01 30.38967 -134.47419 34209 ft 428 kts 248°
2026-04-22 18:02 30.36912 -134.53891 34218 ft 429 kts 248°
2026-04-22 18:02 30.34830 -134.60389 34205 ft 431 kts 248°
2026-04-22 18:03 30.32747 -134.66915 34216 ft 432 kts 248°
2026-04-22 18:03 30.30671 -134.73429 34213 ft 434 kts 248°
2026-04-22 18:04 30.28570 -134.80008 34218 ft 437 kts 248°
2026-04-22 18:04 30.26456 -134.86628 34213 ft 439 kts 248°
2026-04-22 18:05 30.24328 -134.93278 34212 ft 442 kts 248°
2026-04-22 18:05 30.22194 -134.99929 34205 ft 445 kts 249°
2026-04-22 18:06 30.20023 -135.06679 34204 ft 449 kts 249°
2026-04-22 18:06 30.17846 -135.13435 34205 ft 452 kts 249°
2026-04-22 18:07 30.16013 -135.19108 34214 ft 454 kts 248°
2026-04-22 18:07 30.13424 -135.27112 34218 ft 457 kts 249°
2026-04-22 18:08 30.11563 -135.32855 34214 ft 460 kts 249°
2026-04-22 18:08 30.09304 -135.39812 34200 ft 463 kts 249°
2026-04-22 18:09 30.07018 -135.46787 34204 ft 466 kts 249°
2026-04-22 18:09 30.04724 -135.53765 34201 ft 468 kts 249°
2026-04-22 18:10 30.02412 -135.60823 34202 ft 469 kts 249°
2026-04-22 18:10 30.00113 -135.67842 34200 ft 470 kts 249°
2026-04-22 18:11 29.97790 -135.74921 34204 ft 471 kts 249°
2026-04-22 18:11 29.95471 -135.81972 34205 ft 472 kts 249°
2026-04-22 18:12 29.93134 -135.89056 34201 ft 473 kts 249°
2026-04-22 18:12 29.90791 -135.96156 34202 ft 473 kts 249°
2026-04-22 18:13 29.88452 -136.03234 34202 ft 474 kts 249°
2026-04-22 18:13 29.86093 -136.10344 34202 ft 474 kts 249°
2026-04-22 18:14 29.83745 -136.17403 34203 ft 473 kts 249°
2026-04-22 18:14 29.81378 -136.24509 34200 ft 473 kts 248°
2026-04-22 18:15 29.79022 -136.31557 34202 ft 472 kts 248°
2026-04-22 18:15 29.76638 -136.38624 34210 ft 472 kts 248°
2026-04-22 18:16 29.74274 -136.45639 34203 ft 472 kts 248°
2026-04-22 18:16 29.71902 -136.52693 34202 ft 471 kts 248°
2026-04-22 18:17 29.69546 -136.59689 34201 ft 470 kts 248°
2026-04-22 18:17 29.67170 -136.66731 34201 ft 470 kts 248°
2026-04-22 18:18 29.64820 -136.73699 34204 ft 470 kts 248°
2026-04-22 18:18 29.62447 -136.80706 34207 ft 469 kts 248°
2026-04-22 18:19 29.60074 -136.87700 34203 ft 468 kts 248°
2026-04-22 18:19 29.57712 -136.94646 34202 ft 468 kts 248°
2026-04-22 18:20 29.55337 -137.01619 34200 ft 468 kts 248°
2026-04-22 18:20 29.52970 -137.08558 34201 ft 469 kts 248°
2026-04-22 18:21 29.50576 -137.15554 34201 ft 469 kts 248°
2026-04-22 18:21 29.48190 -137.22500 34201 ft 470 kts 248°
2026-04-22 18:22 29.45767 -137.29490 34201 ft 471 kts 248°
2026-04-22 18:22 29.43344 -137.36497 34200 ft 471 kts 248°
2026-04-22 18:23 29.40943 -137.43459 34201 ft 472 kts 249°
2026-04-22 18:23 29.38520 -137.50478 34201 ft 472 kts 249°
2026-04-22 18:24 29.34893 -137.60950 34201 ft 473 kts 249°
2026-04-22 18:25 29.31230 -137.71494 34200 ft 473 kts 249°
2026-04-22 18:25 29.28797 -137.78483 34202 ft 473 kts 249°
2026-04-22 18:26 29.25134 -137.88981 34201 ft 474 kts 249°
2026-04-22 18:26 29.22673 -137.96015 34202 ft 474 kts 249°
2026-04-22 18:27 29.20220 -138.03008 34201 ft 475 kts 249°
2026-04-22 18:27 29.17754 -138.10022 34204 ft 478 kts 249°
2026-04-22 18:28 29.15244 -138.17084 34202 ft 478 kts 249°
2026-04-22 18:28 29.12741 -138.24148 34202 ft 478 kts 249°
2026-04-22 18:29 29.10259 -138.31158 34202 ft 478 kts 249°
2026-04-22 18:29 29.07756 -138.38230 34200 ft 479 kts 249°
2026-04-22 18:30 29.04017 -138.48763 34200 ft 478 kts 249°
2026-04-22 18:31 29.01505 -138.55824 34201 ft 478 kts 249°
2026-04-22 18:31 28.98992 -138.62871 34201 ft 478 kts 249°
2026-04-22 18:32 28.96492 -138.69875 34201 ft 478 kts 249°
2026-04-22 18:32 28.93977 -138.76899 34201 ft 478 kts 249°
2026-04-22 18:33 28.91470 -138.83886 34203 ft 478 kts 249°
2026-04-22 18:33 28.88948 -138.90906 34202 ft 478 kts 249°
2026-04-22 18:34 28.86416 -138.97930 34201 ft 477 kts 249°
2026-04-22 18:34 28.83884 -139.04889 34202 ft 477 kts 249°
2026-04-22 18:35 28.81336 -139.11904 34200 ft 477 kts 249°
2026-04-22 18:35 28.78811 -139.18872 34202 ft 477 kts 249°
2026-04-22 18:36 28.76267 -139.25881 34202 ft 477 kts 249°
2026-04-22 18:36 28.73738 -139.32846 34201 ft 478 kts 249°
2026-04-22 18:37 28.71194 -139.39832 34202 ft 476 kts 249°
2026-04-22 18:37 28.69093 -139.45644 34200 ft 477 kts 249°
2026-04-22 18:38 28.66114 -139.53766 34202 ft 477 kts 248°
2026-04-22 18:38 28.63544 -139.60740 34201 ft 477 kts 249°
2026-04-22 18:39 28.59705 -139.71144 34194 ft 477 kts 249°
2026-04-22 18:39 28.57120 -139.78138 34192 ft 478 kts 249°
2026-04-22 18:40 28.54556 -139.85063 34192 ft 478 kts 249°
2026-04-22 18:40 28.51970 -139.92035 34192 ft 478 kts 248°
2026-04-22 18:41 28.49376 -139.99009 34193 ft 479 kts 248°
2026-04-22 18:41 28.46774 -140.05970 34192 ft 477 kts 248°
2026-04-22 18:42 28.44196 -140.12881 34193 ft 477 kts 248°
2026-04-22 18:42 28.41602 -140.19834 34192 ft 477 kts 248°
2026-04-22 18:43 28.39023 -140.26737 34192 ft 477 kts 248°
2026-04-22 18:43 28.36424 -140.33681 34193 ft 477 kts 248°
2026-04-22 18:44 28.33833 -140.40589 34191 ft 477 kts 248°
2026-04-22 18:44 28.31229 -140.47518 34193 ft 476 kts 248°
2026-04-22 18:45 28.28645 -140.54386 34193 ft 476 kts 248°
2026-04-22 18:45 28.26037 -140.61295 34192 ft 475 kts 248°
2026-04-22 18:46 28.23428 -140.68198 34192 ft 474 kts 248°
2026-04-22 18:46 28.20846 -140.75021 34185 ft 474 kts 248°
2026-04-22 18:47 28.18237 -140.81905 34166 ft 472 kts 248°
2026-04-22 18:47 28.15638 -140.88702 34165 ft 472 kts 248°
2026-04-22 18:48 28.13015 -140.95547 34166 ft 471 kts 248°
2026-04-22 18:48 28.10414 -141.02356 34165 ft 470 kts 248°
2026-04-22 18:49 28.07831 -141.09120 34166 ft 469 kts 248°
2026-04-22 18:49 28.05242 -141.15885 34165 ft 469 kts 248°
2026-04-22 18:50 28.02646 -141.22661 34165 ft 468 kts 248°
2026-04-22 18:50 28.00052 -141.29422 34165 ft 468 kts 248°
2026-04-22 18:51 27.97465 -141.36145 34166 ft 470 kts 248°
2026-04-22 18:51 27.94848 -141.42935 34165 ft 469 kts 248°
2026-04-22 18:52 27.92252 -141.49661 34165 ft 469 kts 248°
2026-04-22 18:52 27.89641 -141.56413 34165 ft 468 kts 248°
2026-04-22 18:53 27.87028 -141.63150 34165 ft 467 kts 248°
2026-04-22 18:53 27.84433 -141.69839 34160 ft 466 kts 248°
2026-04-22 18:54 27.81810 -141.76542 34156 ft 466 kts 248°
2026-04-22 18:54 27.79185 -141.83250 34155 ft 466 kts 248°
2026-04-22 18:55 27.76582 -141.89909 34155 ft 466 kts 248°
2026-04-22 18:55 27.73958 -141.96625 34157 ft 466 kts 248°
2026-04-22 18:56 27.71348 -142.03298 34156 ft 465 kts 248°
2026-04-22 18:56 27.68735 -142.09964 34158 ft 465 kts 248°
2026-04-22 18:57 27.66107 -142.16654 34165 ft 465 kts 248°
2026-04-22 18:57 27.63489 -142.23307 34165 ft 465 kts 248°
2026-04-22 18:58 27.60859 -142.29983 34165 ft 465 kts 248°
2026-04-22 18:58 27.58238 -142.36620 34165 ft 465 kts 248°
2026-04-22 18:59 27.55614 -142.43258 34156 ft 465 kts 248°
2026-04-22 18:59 27.52963 -142.49944 34153 ft 465 kts 248°
2026-04-22 19:00 27.50341 -142.56551 34154 ft 464 kts 247°
2026-04-22 19:00 27.48131 -142.62070 34157 ft 464 kts 247°
2026-04-22 19:01 27.45475 -142.68704 34156 ft 465 kts 247°
2026-04-22 19:01 27.42389 -142.76431 34156 ft 464 kts 247°
2026-04-22 19:02 27.40186 -142.81950 34157 ft 464 kts 248°
2026-04-22 19:02 27.37533 -142.88588 34156 ft 464 kts 247°
2026-04-22 19:03 27.34879 -142.95216 34156 ft 464 kts 247°
2026-04-22 19:03 27.32241 -143.01792 34155 ft 464 kts 248°
2026-04-22 19:04 27.29582 -143.08404 34153 ft 463 kts 247°
2026-04-22 19:04 27.26922 -143.15003 34155 ft 463 kts 247°
2026-04-22 19:05 27.24276 -143.21566 34155 ft 463 kts 247°
2026-04-22 19:05 27.21631 -143.28118 34154 ft 462 kts 247°
2026-04-22 19:06 27.18966 -143.34699 34156 ft 462 kts 247°
2026-04-22 19:07 27.14963 -143.44546 34155 ft 462 kts 247°
2026-04-22 19:07 27.12298 -143.51059 34155 ft 461 kts 247°
2026-04-22 19:08 27.09628 -143.57609 34157 ft 461 kts 247°
2026-04-22 19:08 27.06956 -143.64165 34157 ft 461 kts 247°
2026-04-22 19:09 27.04297 -143.70679 34153 ft 461 kts 247°
2026-04-22 19:09 27.01628 -143.77204 34156 ft 460 kts 247°
2026-04-22 19:10 26.98951 -143.83738 34155 ft 460 kts 247°
2026-04-22 19:10 26.96285 -143.90228 34156 ft 461 kts 247°
2026-04-22 19:11 26.93600 -143.96760 34154 ft 461 kts 247°
2026-04-22 19:11 26.90914 -144.03294 34157 ft 461 kts 248°
2026-04-22 19:12 26.88246 -144.09768 34156 ft 459 kts 248°
2026-04-22 19:12 26.85560 -144.16284 34157 ft 460 kts 248°
2026-04-22 19:13 26.82868 -144.22787 34154 ft 460 kts 248°
2026-04-22 19:13 26.80179 -144.29253 34153 ft 459 kts 248°
2026-04-22 19:14 26.77466 -144.35746 34157 ft 460 kts 248°
2026-04-22 19:14 26.74761 -144.42238 34156 ft 460 kts 248°
2026-04-22 19:15 26.72508 -144.47650 34155 ft 461 kts 248°
2026-04-22 19:15 26.69354 -144.55224 34154 ft 460 kts 248°
2026-04-22 19:16 26.66658 -144.61678 34157 ft 461 kts 248°
2026-04-22 19:16 26.63936 -144.68184 34157 ft 462 kts 248°
2026-04-22 19:17 26.61212 -144.74695 34157 ft 461 kts 248°
2026-04-22 19:17 26.58483 -144.81201 34157 ft 462 kts 248°
2026-04-22 19:18 26.55760 -144.87683 34157 ft 462 kts 249°
2026-04-22 19:18 26.53019 -144.94198 34155 ft 463 kts 249°
2026-04-22 19:19 26.50287 -145.00685 34156 ft 463 kts 249°
2026-04-22 19:19 26.47533 -145.07206 34156 ft 464 kts 249°
2026-04-22 19:20 26.44768 -145.13721 34156 ft 464 kts 249°
2026-04-22 19:20 26.42007 -145.20208 34157 ft 465 kts 249°
2026-04-22 19:21 26.39222 -145.26756 34153 ft 466 kts 249°
2026-04-22 19:21 26.36456 -145.33263 34154 ft 467 kts 249°
2026-04-22 19:22 26.33664 -145.39830 34154 ft 467 kts 250°
2026-04-22 19:22 26.30885 -145.46356 34153 ft 468 kts 250°
2026-04-22 19:23 26.28079 -145.52929 34148 ft 469 kts 250°
2026-04-22 19:23 26.25272 -145.59493 34147 ft 470 kts 250°
2026-04-22 19:24 26.22465 -145.66050 34147 ft 470 kts 250°
2026-04-22 19:24 26.19639 -145.72645 34140 ft 471 kts 250°
2026-04-22 19:25 26.16826 -145.79196 34137 ft 471 kts 250°
2026-04-22 19:25 26.13983 -145.85812 34136 ft 472 kts 250°
2026-04-22 19:26 26.11158 -145.92369 34138 ft 473 kts 250°
2026-04-22 19:26 26.08293 -145.98975 34139 ft 473 kts 250°
2026-04-22 19:27 26.05423 -146.05575 34138 ft 473 kts 250°
2026-04-22 19:27 26.02582 -146.12133 34138 ft 473 kts 250°
2026-04-22 19:28 25.99721 -146.18735 34137 ft 473 kts 250°
2026-04-22 19:28 25.96863 -146.25322 34137 ft 473 kts 250°
2026-04-22 19:29 25.94006 -146.31912 34137 ft 473 kts 250°
2026-04-22 19:29 25.91144 -146.38505 34137 ft 473 kts 250°
2026-04-22 19:30 25.88779 -146.43945 34137 ft 473 kts 250°
2026-04-22 19:30 25.85419 -146.51658 34136 ft 474 kts 250°
2026-04-22 19:31 25.82560 -146.58210 34145 ft 474 kts 250°
2026-04-22 19:31 25.79685 -146.64791 34145 ft 473 kts 250°
2026-04-22 19:32 25.76804 -146.71375 34145 ft 474 kts 249°
2026-04-22 19:32 25.73921 -146.77953 34146 ft 474 kts 249°
2026-04-22 19:33 25.71050 -146.84497 34140 ft 474 kts 249°
2026-04-22 19:33 25.68156 -146.91081 34137 ft 475 kts 249°
2026-04-22 19:34 25.65271 -146.97640 34138 ft 475 kts 249°
2026-04-22 19:34 25.62344 -147.04239 34137 ft 476 kts 249°
2026-04-22 19:35 25.59422 -147.10817 34137 ft 476 kts 249°
2026-04-22 19:35 25.56999 -147.16290 34137 ft 476 kts 249°
2026-04-22 19:36 25.53605 -147.23952 34137 ft 476 kts 249°
2026-04-22 19:36 25.50682 -147.30543 34137 ft 476 kts 249°
2026-04-22 19:37 25.47768 -147.37102 34137 ft 477 kts 249°
2026-04-22 19:37 25.44837 -147.43688 34137 ft 477 kts 249°
2026-04-22 19:38 25.41917 -147.50243 34138 ft 477 kts 249°
2026-04-22 19:38 25.38975 -147.56836 34137 ft 477 kts 249°
2026-04-22 19:39 25.36027 -147.63426 34145 ft 477 kts 249°
2026-04-22 19:39 25.33098 -147.69970 34147 ft 477 kts 249°
2026-04-22 19:40 25.30146 -147.76556 34147 ft 478 kts 249°
2026-04-22 19:40 25.27189 -147.83137 34146 ft 478 kts 249°
2026-04-22 19:41 25.24232 -147.89675 34146 ft 478 kts 249°
2026-04-22 19:41 25.21253 -147.96270 34147 ft 479 kts 249°
2026-04-22 19:42 25.18278 -148.02863 34146 ft 479 kts 249°
2026-04-22 19:42 25.15319 -148.09420 34147 ft 481 kts 249°
2026-04-22 19:43 25.10833 -148.19335 34278 ft 480 kts 249°
2026-04-22 19:43 25.09335 -148.22641 34404 ft 480 kts 249°
2026-04-22 19:43 25.07861 -148.25891 34528 ft 480 kts 249°
2026-04-22 19:44 25.06365 -148.29189 34652 ft 480 kts 249°
2026-04-22 19:44 25.04867 -148.32488 34778 ft 479 kts 249°
2026-04-22 19:44 25.03375 -148.35771 34903 ft 479 kts 249°
2026-04-22 19:44 25.01879 -148.39060 35028 ft 479 kts 249°
2026-04-22 19:45 24.98912 -148.45576 35283 ft 478 kts 249°
2026-04-22 19:45 24.97420 -148.48849 35399 ft 477 kts 249°
2026-04-22 19:45 24.95923 -148.52131 35526 ft 477 kts 249°
2026-04-22 19:46 24.94431 -148.55397 35654 ft 477 kts 249°
2026-04-22 19:46 24.92939 -148.58663 35785 ft 476 kts 249°
2026-04-22 19:46 24.91467 -148.61890 35899 ft 476 kts 249°
2026-04-22 19:46 24.89973 -148.65151 36024 ft 476 kts 249°
2026-04-22 19:47 24.86977 -148.71655 36144 ft 477 kts 249°
2026-04-22 19:47 24.83978 -148.78170 36146 ft 475 kts 249°
2026-04-22 19:48 24.81013 -148.84625 36146 ft 476 kts 249°
2026-04-22 19:48 24.78021 -148.91134 36146 ft 476 kts 249°
2026-04-22 19:49 24.75026 -148.97637 36146 ft 476 kts 249°
2026-04-22 19:49 24.72047 -149.04097 36146 ft 476 kts 249°
2026-04-22 19:50 24.69046 -149.10598 36145 ft 476 kts 249°
2026-04-22 19:50 24.66039 -149.17098 36146 ft 476 kts 249°
2026-04-22 19:51 24.63045 -149.23563 36146 ft 477 kts 249°
2026-04-22 19:51 24.60021 -149.30082 36147 ft 477 kts 249°
2026-04-22 19:52 24.57510 -149.35489 36146 ft 477 kts 249°
2026-04-22 19:52 24.53992 -149.43052 36147 ft 478 kts 249°
2026-04-22 19:53 24.51466 -149.48459 36146 ft 478 kts 249°
2026-04-22 19:53 24.48418 -149.54960 36147 ft 478 kts 249°
2026-04-22 19:54 24.45371 -149.61473 36144 ft 479 kts 249°
2026-04-22 19:54 24.42334 -149.67967 36148 ft 480 kts 249°
2026-04-22 19:55 24.39296 -149.74454 36148 ft 480 kts 249°
2026-04-22 19:55 24.36239 -149.80974 36148 ft 480 kts 249°
2026-04-22 19:56 24.33173 -149.87506 36147 ft 481 kts 249°
2026-04-22 19:56 24.30122 -149.93997 36147 ft 481 kts 249°
2026-04-22 19:57 24.27044 -150.00528 36146 ft 480 kts 249°
2026-04-22 19:57 24.23986 -150.07009 36145 ft 481 kts 249°
2026-04-22 19:58 24.20925 -150.13493 36147 ft 481 kts 249°
2026-04-22 19:58 24.17841 -150.20013 36147 ft 481 kts 249°
2026-04-22 20:00 24.07045 -150.42701 36135 ft 480 kts 249°
2026-04-22 20:01 24.03958 -150.49191 36129 ft 480 kts 249°
2026-04-22 20:01 24.00884 -150.55649 36128 ft 480 kts 249°
2026-04-22 20:02 23.97789 -150.62137 36124 ft 480 kts 249°
2026-04-22 20:02 23.94703 -150.68603 36123 ft 482 kts 249°
2026-04-22 20:03 23.91597 -150.75094 36128 ft 481 kts 249°
2026-04-22 20:03 23.88507 -150.81541 36131 ft 480 kts 249°
2026-04-22 20:04 23.85390 -150.88040 36132 ft 481 kts 248°
2026-04-22 20:04 23.82295 -150.94481 36123 ft 481 kts 248°
2026-04-22 20:05 23.79177 -151.00958 36130 ft 480 kts 248°
2026-04-22 20:05 23.76081 -151.07384 36130 ft 480 kts 248°
2026-04-22 20:06 23.72955 -151.13825 36133 ft 480 kts 248°
2026-04-22 20:06 23.69826 -151.20286 36129 ft 480 kts 248°
2026-04-22 20:07 23.66728 -151.26693 36132 ft 480 kts 248°
2026-04-22 20:07 23.63601 -151.33152 36127 ft 480 kts 248°
2026-04-22 20:08 23.60495 -151.39553 36126 ft 479 kts 248°
2026-04-22 20:08 23.57382 -151.45965 36125 ft 479 kts 248°
2026-04-22 20:09 23.54270 -151.52365 36131 ft 479 kts 248°
2026-04-22 20:09 23.51133 -151.58812 36130 ft 479 kts 248°
2026-04-22 20:10 23.48024 -151.65188 36130 ft 478 kts 248°
2026-04-22 20:10 23.44899 -151.71586 36132 ft 478 kts 248°
2026-04-22 20:11 23.41882 -151.77761 36128 ft 478 kts 248°
2026-04-22 20:11 23.38744 -151.84174 36126 ft 479 kts 248°
2026-04-22 20:12 23.35603 -151.90564 36131 ft 479 kts 248°
2026-04-22 20:12 23.32470 -151.96923 36133 ft 479 kts 248°
2026-04-22 20:13 23.29321 -152.03318 36132 ft 479 kts 248°
2026-04-22 20:13 23.26189 -152.09681 36127 ft 480 kts 248°
2026-04-22 20:14 23.23034 -152.16089 36131 ft 480 kts 247°
2026-04-22 20:14 23.19868 -152.22501 36124 ft 480 kts 247°
2026-04-22 20:15 23.16724 -152.28871 36127 ft 481 kts 247°
2026-04-22 20:15 23.13553 -152.35287 36125 ft 481 kts 247°
2026-04-22 20:16 23.10372 -152.41711 36132 ft 482 kts 247°
2026-04-22 20:16 23.07209 -152.48092 36132 ft 482 kts 247°
2026-04-22 20:17 23.04022 -152.54513 36131 ft 482 kts 247°
2026-04-22 20:17 23.00834 -152.60886 36127 ft 482 kts 246°
2026-04-22 20:18 22.97615 -152.67288 36128 ft 483 kts 246°
2026-04-22 20:18 22.94408 -152.73673 36133 ft 483 kts 246°
2026-04-22 20:19 22.91185 -152.80087 36132 ft 483 kts 246°
2026-04-22 20:19 22.87978 -152.86461 36132 ft 484 kts 246°
2026-04-22 20:20 22.84770 -152.92883 36125 ft 483 kts 247°
2026-04-22 20:20 22.81593 -152.99328 36128 ft 484 kts 247°
2026-04-22 20:21 22.78416 -153.05705 36124 ft 484 kts 246°
2026-04-22 20:21 22.75204 -153.12104 36128 ft 484 kts 246°
2026-04-22 20:22 22.71967 -153.18534 36127 ft 484 kts 246°
2026-04-22 20:22 22.68743 -153.24928 36124 ft 485 kts 246°
2026-04-22 20:23 22.65510 -153.31338 36128 ft 485 kts 246°
2026-04-22 20:23 22.62276 -153.37731 36132 ft 486 kts 246°
2026-04-22 20:24 22.59009 -153.44163 36125 ft 486 kts 246°
2026-04-22 20:24 22.55763 -153.50558 36130 ft 486 kts 246°
2026-04-22 20:25 22.52498 -153.56994 36132 ft 487 kts 246°
2026-04-22 20:25 22.49250 -153.63394 36130 ft 487 kts 246°
2026-04-22 20:26 22.45992 -153.69802 36130 ft 487 kts 246°
2026-04-22 20:26 22.42714 -153.76242 36131 ft 488 kts 245°
2026-04-22 20:27 22.39448 -153.82652 36124 ft 488 kts 245°
2026-04-22 20:27 22.36198 -153.89111 36126 ft 486 kts 249°
2026-04-22 20:28 22.34087 -153.95944 36129 ft 477 kts 262°
2026-04-22 20:28 22.32856 -154.02954 36125 ft 476 kts 263°
2026-04-22 20:29 22.31617 -154.09988 36138 ft 478 kts 263°
2026-04-22 20:29 22.30258 -154.17035 36138 ft 478 kts 262°
2026-04-22 20:30 22.28861 -154.24014 36141 ft 478 kts 262°
2026-04-22 20:30 22.27442 -154.31060 36131 ft 478 kts 262°
2026-04-22 20:31 22.26034 -154.38062 36136 ft 478 kts 262°
2026-04-22 20:31 22.24626 -154.45060 36141 ft 478 kts 262°
2026-04-22 20:32 22.23216 -154.52049 36143 ft 477 kts 262°
2026-04-22 20:32 22.21796 -154.59078 36130 ft 477 kts 262°
2026-04-22 20:33 22.20381 -154.66053 36137 ft 477 kts 262°
2026-04-22 20:33 22.18960 -154.73050 36130 ft 477 kts 262°
2026-04-22 20:34 22.17536 -154.80017 36144 ft 477 kts 261°
2026-04-22 20:34 22.16097 -154.86988 36135 ft 477 kts 261°
2026-04-22 20:35 22.14657 -154.93980 36132 ft 476 kts 261°
2026-04-22 20:35 22.13226 -155.00965 36137 ft 476 kts 261°
2026-04-22 20:36 22.11801 -155.07905 36137 ft 476 kts 261°
2026-04-22 20:36 22.10364 -155.14883 36129 ft 476 kts 261°
2026-04-22 20:37 22.08936 -155.21800 36137 ft 475 kts 261°
2026-04-22 20:37 22.07497 -155.28756 36136 ft 475 kts 261°
2026-04-22 20:38 22.06059 -155.35687 35852 ft 477 kts 261°
2026-04-22 20:38 22.05336 -155.39167 35736 ft 475 kts 261°
2026-04-22 20:38 22.04612 -155.42645 35611 ft 475 kts 261°
2026-04-22 20:38 22.03887 -155.46132 35486 ft 475 kts 261°
2026-04-22 20:39 22.03160 -155.49619 35362 ft 476 kts 261°
2026-04-22 20:39 22.02432 -155.53100 35238 ft 476 kts 261°
2026-04-22 20:39 22.01714 -155.56543 35114 ft 477 kts 261°
2026-04-22 20:39 22.00984 -155.60032 34993 ft 477 kts 261°
2026-04-22 20:40 22.00253 -155.63526 34863 ft 477 kts 260°
2026-04-22 20:40 21.99518 -155.67016 34742 ft 477 kts 260°
2026-04-22 20:40 21.98777 -155.70511 34613 ft 478 kts 260°
2026-04-22 20:40 21.98044 -155.73967 34489 ft 478 kts 260°
2026-04-22 20:41 21.97303 -155.77469 34365 ft 478 kts 260°
2026-04-22 20:41 21.96564 -155.80964 34240 ft 478 kts 260°
2026-04-22 20:41 21.95825 -155.84465 34114 ft 478 kts 260°
2026-04-22 20:41 21.95086 -155.87965 33989 ft 479 kts 260°
2026-04-22 20:42 21.94345 -155.91468 33864 ft 479 kts 260°
2026-04-22 20:42 21.93604 -155.94968 33740 ft 479 kts 260°
2026-04-22 20:42 21.92872 -155.98428 33616 ft 479 kts 260°
2026-04-22 20:42 21.92130 -156.01931 33491 ft 479 kts 260°
2026-04-22 20:43 21.91384 -156.05447 33365 ft 480 kts 260°
2026-04-22 20:43 21.90638 -156.08958 33240 ft 480 kts 260°
2026-04-22 20:43 21.89901 -156.12419 33117 ft 480 kts 260°
2026-04-22 20:43 21.89153 -156.15932 32988 ft 480 kts 260°
2026-04-22 20:44 21.88406 -156.19439 32867 ft 480 kts 260°
2026-04-22 20:44 21.87658 -156.22943 32741 ft 481 kts 260°
2026-04-22 20:44 21.86907 -156.26454 32617 ft 481 kts 260°
2026-04-22 20:44 21.86152 -156.29972 32496 ft 481 kts 259°
2026-04-22 20:45 21.85651 -156.32301 32409 ft 481 kts 259°
2026-04-22 20:45 21.84893 -156.35823 32283 ft 482 kts 259°
2026-04-22 20:45 21.84138 -156.39335 32151 ft 482 kts 259°
2026-04-22 20:45 21.83136 -156.44015 31751 ft 483 kts 259°
2026-04-22 20:46 21.81875 -156.49886 31254 ft 483 kts 259°
2026-04-22 20:46 21.81118 -156.53414 30952 ft 485 kts 259°
2026-04-22 20:46 21.80359 -156.56948 30652 ft 485 kts 259°
2026-04-22 20:47 21.79594 -156.60500 30351 ft 486 kts 259°
2026-04-22 20:47 21.78828 -156.64049 30053 ft 485 kts 259°
2026-04-22 20:47 21.78066 -156.67576 29749 ft 482 kts 259°
2026-04-22 20:47 21.77313 -156.71057 29100 ft 481 kts 259°
2026-04-22 20:48 21.76558 -156.74550 28347 ft 474 kts 259°
2026-04-22 20:48 21.75812 -156.77995 27596 ft 468 kts 259°
2026-04-22 20:48 21.75088 -156.81330 26752 ft 461 kts 259°
2026-04-22 20:48 21.74358 -156.84670 25801 ft 454 kts 258°
2026-04-22 20:49 21.73635 -156.87967 24839 ft 449 kts 258°
2026-04-22 20:49 21.72931 -156.91212 23896 ft 442 kts 258°
2026-04-22 20:49 21.72235 -156.94418 22943 ft 436 kts 258°
2026-04-22 20:49 21.71550 -156.97577 21998 ft 428 kts 259°
2026-04-22 20:50 21.70884 -157.00640 21047 ft 422 kts 259°
2026-04-22 20:50 21.70218 -157.03694 20096 ft 414 kts 259°
2026-04-22 20:50 21.69564 -157.06690 19145 ft 408 kts 259°
2026-04-22 20:50 21.68919 -157.09643 18202 ft 403 kts 259°
2026-04-22 20:51 21.68283 -157.12554 17246 ft 397 kts 259°
2026-04-22 20:51 21.67653 -157.15435 16295 ft 393 kts 259°
2026-04-22 20:51 21.66818 -157.18180 15357 ft 391 kts 246°
2026-04-22 20:51 21.65393 -157.20662 14486 ft 388 kts 235°
2026-04-22 20:52 21.63723 -157.22889 14040 ft 375 kts 231°
2026-04-22 20:52 21.62046 -157.24978 13595 ft 373 kts 231°
2026-04-22 20:52 21.60346 -157.27079 13222 ft 370 kts 231°
2026-04-22 20:52 21.58673 -157.29175 12838 ft 368 kts 231°
2026-04-22 20:53 21.57022 -157.31272 12467 ft 366 kts 231°
2026-04-22 20:53 21.55396 -157.33359 12207 ft 363 kts 231°
2026-04-22 20:53 21.53779 -157.35444 12146 ft 363 kts 231°
2026-04-22 20:53 21.52184 -157.37506 12138 ft 363 kts 231°
2026-04-22 20:54 21.50602 -157.39552 12132 ft 342 kts 231°
2026-04-22 20:54 21.49130 -157.41452 12128 ft 317 kts 232°
2026-04-22 20:54 21.47761 -157.43222 12134 ft 311 kts 232°
2026-04-22 20:54 21.46381 -157.45011 12137 ft 310 kts 232°
2026-04-22 20:55 21.45006 -157.46792 12137 ft 309 kts 232°
2026-04-22 20:55 21.43645 -157.48554 12140 ft 309 kts 232°
2026-04-22 20:55 21.42272 -157.50339 12139 ft 308 kts 233°
2026-04-22 20:55 21.41134 -157.52282 12131 ft 307 kts 245°
2026-04-22 20:56 21.40242 -157.54370 11908 ft 308 kts 249°
2026-04-22 20:56 21.39426 -157.56496 11452 ft 305 kts 249°
2026-04-22 20:56 21.38642 -157.58599 11006 ft 302 kts 250°
2026-04-22 20:56 21.37871 -157.60667 10552 ft 301 kts 249°
2026-04-22 20:57 21.37094 -157.62743 10103 ft 298 kts 249°
2026-04-22 20:57 21.36320 -157.64800 9652 ft 296 kts 249°
2026-04-22 20:57 21.35549 -157.66844 9229 ft 293 kts 248°
2026-04-22 20:57 21.34784 -157.68868 8853 ft 292 kts 248°
2026-04-22 20:58 21.34022 -157.70882 8482 ft 290 kts 248°
2026-04-22 20:58 21.33272 -157.72857 8127 ft 288 kts 248°
2026-04-22 20:58 21.32519 -157.74837 8010 ft 286 kts 248°
2026-04-22 20:58 21.31761 -157.76825 7979 ft 287 kts 248°
2026-04-22 20:59 21.31003 -157.78806 7976 ft 288 kts 248°
2026-04-22 20:59 21.30244 -157.80793 7987 ft 288 kts 248°
2026-04-22 20:59 21.29484 -157.82781 7987 ft 288 kts 248°
2026-04-22 20:59 21.28709 -157.84774 7982 ft 290 kts 246°
2026-04-22 21:00 21.27888 -157.86699 7925 ft 276 kts 245°
2026-04-22 21:00 21.27089 -157.88509 7652 ft 268 kts 245°
2026-04-22 21:00 21.26282 -157.90319 7368 ft 263 kts 244°
2026-04-22 21:00 21.25510 -157.92055 7095 ft 262 kts 244°
2026-04-22 21:01 21.24725 -157.93819 6821 ft 261 kts 245°
2026-04-22 21:01 21.24032 -157.95611 6539 ft 259 kts 257°
2026-04-22 21:01 21.23813 -157.97520 6271 ft 255 kts 268°
2026-04-22 21:01 21.23762 -157.99397 6041 ft 247 kts 269°
2026-04-22 21:02 21.23733 -158.01158 5991 ft 232 kts 270°
2026-04-22 21:02 21.23727 -158.02907 6007 ft 237 kts 270°
2026-04-22 21:02 21.23723 -158.04672 5999 ft 235 kts 271°
2026-04-22 21:02 21.23727 -158.06423 5991 ft 235 kts 271°
2026-04-22 21:03 21.23732 -158.08179 5995 ft 235 kts 270°
2026-04-22 21:03 21.23735 -158.09916 6000 ft 235 kts 271°
2026-04-22 21:03 21.23732 -158.11677 6000 ft 237 kts 271°
2026-04-22 21:03 21.23737 -158.13441 5987 ft 236 kts 270°
2026-04-22 21:04 21.23742 -158.15196 5993 ft 235 kts 271°
2026-04-22 21:04 21.23749 -158.16930 5996 ft 235 kts 271°
2026-04-22 21:04 21.23927 -158.18680 5994 ft 235 kts 285°
2026-04-22 21:04 21.24616 -158.20265 6002 ft 241 kts 308°
2026-04-22 21:05 21.25867 -158.21446 6000 ft 241 kts 333°
2026-04-22 21:05 21.27452 -158.21952 6009 ft 240 kts 354°
2026-04-22 21:05 21.29118 -158.22015 6003 ft 242 kts
2026-04-22 21:05 21.30738 -158.21583 5992 ft 240 kts 28°
2026-04-22 21:06 21.31969 -158.20393 5991 ft 239 kts 59°
2026-04-22 21:06 21.32506 -158.18702 5563 ft 249 kts 82°
2026-04-22 21:06 21.32591 -158.16803 4869 ft 259 kts 89°
2026-04-22 21:06 21.32566 -158.14838 4207 ft 266 kts 91°
2026-04-22 21:07 21.32534 -158.12891 4021 ft 253 kts 90°
2026-04-22 21:07 21.32532 -158.11058 3737 ft 245 kts 90°
2026-04-22 21:07 21.32511 -158.09248 3247 ft 245 kts 91°
2026-04-22 21:07 21.32486 -158.07423 2609 ft 242 kts 90°
2026-04-22 21:08 21.32507 -158.05672 2261 ft 226 kts 89°
2026-04-22 21:08 21.32538 -158.04029 1934 ft 214 kts 90°
2026-04-22 21:08 21.32527 -158.02494 1570 ft 203 kts 91°
2026-04-22 21:08 21.32544 -158.01031 1207 ft 186 kts 90°
2026-04-22 21:09 21.32565 -157.99733 1021 ft 165 kts 93°
2026-04-22 21:09 21.32546 -157.98513 815 ft 163 kts 94°
2026-04-22 21:09 21.32540 -157.97294 620 ft 164 kts 92°
2026-04-22 21:09 21.32540 -157.96082 414 ft 163 kts 92°
2026-04-22 21:10 21.32537 -157.94863 181 ft 162 kts 92°
2026-04-22 21:10 21.32530 -157.93693 36 ft 149 kts 92°
2026-04-22 21:10 21.32525 -157.92755 32 ft 107 kts 89°
2026-04-22 21:10 21.32525 -157.92159 32 ft 53 kts 90°
2026-04-22 21:11 21.32595 -157.91948 30 ft 24 kts 27°
2026-04-22 21:11 21.32705 -157.91892 31 ft 13 kts 24°
2026-04-22 21:11 21.32788 -157.91862 30 ft 13 kts 13°
2026-04-22 21:11 21.32869 -157.91844 31 ft 10 kts 10°
2026-04-22 21:12 21.32930 -157.91833 30 ft 8 kts 10°
2026-04-22 21:12 21.32976 -157.91824 31 ft 4 kts 10°
2026-04-22 21:12 21.32995 -157.91815 31 ft 2 kts 36°
2026-04-22 21:12 21.33002 -157.91801 31 ft 4 kts 70°
2026-04-22 21:13 21.33002 -157.91769 31 ft 2 kts 97°
2026-04-22 21:13 21.33000 -157.91752 31 ft 1 kts 98°
2026-04-22 21:13 21.32999 -157.91747 31 ft 1 kts 98°
2026-04-22 21:13 21.32999 -157.91746 31 ft 0 kts 98°